Regional Weather Roundup
Issued by NWS Cleveland, OH

Home | Current Version | Previous Version | Graphics & Text | Print | Product List | Glossary On
Versions: 1 2 3 4 5 6 7 8 9 10 11 12 13 14 15 16 17 18 19 20 21 22 23 24 25 26 27 28 29 30 31 32 33 34 35 36 37 38 39 40 41 42 43 44 45 46 47 48 49 50
000
ASUS41 KCLE 252010
RWRCLE
OHIO REGIONAL WEATHER ROUNDUP
NATIONAL WEATHER SERVICE CLEVELAND, OH
400 PM EDT SAT APR 25 2015

NOTE: "FAIR" INDICATES FEW OR NO CLOUDS BELOW 12,000 FEET WITH NO
SIGNIFICANT WEATHER AND/OR OBSTRUCTIONS TO VISIBILITY.

OHZ001>008-015>018-024>027-034-035-043-044-252100-
   NORTHWEST OHIO

CITY           SKY/WX    TMP DP  RH WIND       PRES   REMARKS
DEFIANCE       LGT RAIN  47  40  76 E12       29.77F
FINDLAY        LGT RAIN  49  40  71 NE17      29.73F
TOLEDO EXPRESS CLOUDY    46  28  49 E14G22    29.79F
TOLEDO EXEC    CLOUDY    46  26  45 NE14      29.80F
LIMA           LGT RAIN  46  41  82 E9        29.73F
$$

OHZ009>014-019>023-028>033-038-089-252100-
   NORTHEAST OHIO

CITY           SKY/WX    TMP DP  RH WIND       PRES   REMARKS
CLE-HOPKINS    PTSUNNY   50  22  33 N21       29.79F
CLE-LAKEFRONT  MOSUNNY   45  32  60 N20G28    29.77F
CUY CO. ARPT   MOSUNNY   54  27  35 E16       29.77F
LORAIN-ELYRIA  PTSUNNY   48  26  42 NE15      29.78F
ASHTABULA      MOSUNNY   48  23  37 N9        29.78F
AKRON-CANTON   PTSUNNY   51  27  39 E10       29.75F
WOOSTER        PTSUNNY   49  33  54 NE12      29.74F
MANSFIELD      CLOUDY    50  34  54 NE13      29.73F
YOUNGSTOWN     PTSUNNY   52  20  28 CALM      29.74F
$$

OHZ042-051>053-060>062-070>072-077>081-252100-
  SOUTHWEST OHIO

CITY           SKY/WX    TMP DP  RH WIND       PRES   REMARKS
CINC-COVINGTON LGT RAIN  46  44  93 NE16      29.66R FOG
CINC-LUNKEN    LGT RAIN  44  42  93 NE15      29.68R FOG
HAMILTON       RAIN      43  43 100 NW9       29.73R FOG
DAYTON         RAIN      43  40  89 NE15      29.72S FOG
WRIGHT-PAT AFB LGT RAIN  43  41  93 N9        29.72R FOG
DAYTON GENERAL RAIN      41  40  96 NE9       29.70R FOG
WILMINGTON     RAIN      41  38  89 E12       29.68S FOG
$$

OHZ036-037-039>041-045>050-054>059-063>069-073>076-082>088-252100-
  CENTRAL AND SOUTHEAST OHIO

CITY           SKY/WX    TMP DP  RH WIND       PRES   REMARKS
COLUMBUS       LGT RAIN  44  40  85 NE7       29.73R
OSU AIRPORT    LGT RAIN  44  39  82 E8        29.73S
BOLTON FIELD   LGT RAIN  45  41  87 NE9       29.72S
RICKENBACK AFB LGT RAIN  44  39  83 NE13      29.70F
NEWARK         LGT RAIN  46  41  82 E8        29.71F
MARION         LGT RAIN  48  38  68 E9        29.73F
LANCASTER      LGT RAIN  46  39  76 NE8       29.72S
ZANESVILLE     LGT RAIN  45  38  76 E6        29.72F
NEW PHILLY     CLOUDY    55  31  39 N8        29.73F
$$


USA.gov is the U.S. government's official web portal to all federal, state and local government web resources and services.